W6DSP Weather Reports


Display with metric or nautical units.
time (UTC)temp
F
wind
direction
speed
MPH
gust
MPH
rain 1hr
in
rain 24hr
in
rain mn
in
humidity
%
barometer
mb
20260904012859 75 159 0.0 1.0 0.00 0.01 0.01 84 1014.6
20260904011728 76 168 0.0 4.0 0.00 0.01 0.01 84 1014.6
20260904005259 77 119 0.0 4.0 0.00 0.01 0.01 83 1014.8
20260904001658 78 123 1.0 9.0 0.00 0.01 0.01 81 1014.4
20260903235221 80 28 0.0 6.0 0.00 0.01 0.01 79 1014.2
20260903233942 81 62 0.0 3.0 0.00 0.01 0.01 78 1014.4
20260903231521 82 104 1.0 11.0 0.00 0.01 0.01 77 1014.2
20260903230341 82 55 4.0 11.0 0.00 0.01 0.01 76 1013.3
20260903220356 86 0 4.0 12.0 0.00 0.01 0.01 74 1013.2
20260903213842 87 291 5.0 18.0 0.00 0.00 0.00 68 1012.8
20260903212627 93 62 0.0 3.0 0.00 0.00 0.00 65 1012.5
20260903205023 94 102 0.0 3.0 0.00 0.00 0.00 66 1012.4
20260903203752 94 331 1.0 7.0 0.00 0.00 0.00 63 1012.4
20260903194831 94 320 1.0 7.0 0.00 0.00 0.00 61 1012.4
20260903193621 94 169 1.0 9.0 0.00 0.00 0.00 66 1012.5
20260903191229 93 240 1.0 6.0 0.00 0.00 0.00 62 1013.3
20260903190054 93 107 1.0 9.0 0.00 0.00 0.00 65 1013.6
20260903182501 93 84 1.0 9.0 0.00 0.00 0.00 66 1014.0
20260903174905 92 136 1.0 9.0 0.00 0.00 0.00 67 1014.1
20260903173706 92 30 1.0 6.0 0.00 0.00 0.00 66 1014.0
20260903164952 91 81 1.0 12.0 0.00 0.00 0.00 70 1014.2
20260903161325 89 251 0.0 8.0 0.00 0.00 0.00 67 1014.9
20260903150128 87 189 1.0 6.0 0.00 0.00 0.00 72 1014.8
20260903144935 86 161 1.0 6.0 0.00 0.00 0.00 72 1014.7
20260903142533 85 59 0.0 4.0 0.00 0.00 0.00 76 1014.7
20260903134853 82 313 0.0 1.0 0.00 0.00 0.00 78 1014.7
20260903133658 81 58 0.0 4.0 0.00 0.00 0.00 80 1014.6
20260903124833 77 108 0.0 3.0 0.00 0.00 0.00 89 1015.1
20260903123650 75 316 0.0 1.0 0.00 0.00 0.00 92 1015.2
20260903120100 73 214 0.0 0.0 0.00 0.00 0.00 92 1015.1
20260903111322 73 214 0.0 0.0 0.00 0.00 0.00 92 1015.0
20260903103626 73 214 0.0 0.0 0.00 0.00 0.00 92 1014.7
20260903101139 73 214 0.0 0.0 0.00 0.00 0.00 92 1014.7
20260903100003 73 214 0.0 1.0 0.00 0.00 0.00 92 1014.5
20260903094758 73 214 0.0 0.0 0.00 0.00 0.00 92 1014.6
20260903093553 74 186 0.0 0.0 0.00 0.00 0.00 91 1014.6
20260903092324 74 186 0.0 0.0 0.00 0.00 0.00 91 1014.6
20260903083521 75 186 0.0 0.0 0.00 0.00 0.00 90 1014.4
20260903074710 77 84 0.0 1.0 0.00 0.00 0.00 86 1014.2
20260903072225 78 114 0.0 4.0 0.00 0.00 0.00 85 1014.0
20260903065812 78 340 0.0 4.0 0.00 0.00 0.00 86 1014.0
20260903062116 78 134 0.0 8.0 0.00 0.00 0.00 86 1014.2
20260903060921 78 111 0.0 4.0 0.00 0.00 0.00 85 1014.2
20260903055650 79 109 0.0 8.0 0.00 0.00 0.00 85 1014.3
20260903050816 78 125 0.0 3.0 0.00 0.00 0.00 88 1013.9
20260903043224 77 242 0.0 2.0 0.00 0.00 0.00 90 1013.7
20260903033211 78 230 0.0 0.0 0.00 0.00 0.00 89 1013.9
20260903031953 78 230 0.0 1.0 0.00 0.00 0.00 89 1014.0
20260903030753 78 230 0.0 0.0 0.00 0.00 0.00 89 1014.0
20260903022032 78 243 0.0 0.0 0.00 0.00 0.00 90 1014.0
20260903014328 79 243 0.0 1.0 0.00 0.00 0.00 88 1013.9